Regional Weather Roundup
Issued by NWS

Home | Current Version | Previous Version | Graphics & Text | Print | Product List | Glossary On
Versions: 1 2 3 4 5 6 7 8 9 10 11 12 13 14 15 16 17 18 19 20 21 22 23 24 25 26 27 28 29 30 31 32 33 34 35 36 37 38 39 40 41 42 43 44 45 46 47 48 49 50
355
ASUS45 KBOI 170010
RWRID

IDAHO REGIONAL WEATHER ROUNDUP
NATIONAL WEATHER SERVICE BOISE ID
600 PM MDT WED AUG 16 2017

NOTE: "FAIR" INDICATES FEW OR NO CLOUDS BELOW 12000 FEET
WITH NO SIGNIFICANT WEATHER AND/OR OBSTRUCTIONS TO VISIBILITY

IDZ012-014-170100-
SOUTHWEST IDAHO


CITY           SKY/WX    TMP DP  RH WIND       PRES   REMARKS
BOISE          SUNNY     88  37  16 NW9       29.95F
CALDWELL       SUNNY     88  37  16 NW6       29.94F
MOUNTAIN HOME  SUNNY     90  40  17 NW13G21   29.95F
$$

IDZ016-017-170100-
SOUTHCENTRAL IDAHO


CITY           SKY/WX    TMP DP  RH WIND       PRES   REMARKS
BURLEY         SUNNY     83  40  21 W9        30.00F
JEROME         SUNNY     85  42  22 W10       30.02S
TWIN FALLS     SUNNY     84  41  21 NW8       30.02F
$$

IDZ019>023-170100-
SOUTHEAST IDAHO


CITY           SKY/WX    TMP DP  RH WIND       PRES   REMARKS
IDAHO FALLS    SUNNY     83  34  17 S13G20    30.03F
POCATELLO      MOSUNNY   86  32  14 W14       30.03F
REXBURG        SUNNY     81  35  19 S9        30.04F
$$

IDZ006-010-011-018-031-032-170100-
CENTRAL IDAHO MOUNTAINS


CITY           SKY/WX    TMP DP  RH WIND       PRES   REMARKS
MCCALL         SUNNY     80  25  13 CALM      30.06F
HAILEY         MOSUNNY   79  39  24 SW8G16    30.07S
STANLEY          N/A     75  33  21 W6        30.15S
SALMON         SUNNY     84  41  21 N6        29.94F
CHALLIS        MOSUNNY   82  32  16 W12       30.01S
$$

IDZ002-004-006-007-026-170100-
NORTHERN IDAHO


CITY           SKY/WX    TMP DP  RH WIND       PRES   REMARKS
LEWISTON       SUNNY     88  41  19 NW7       29.91F
LOWELL           N/A     87  43  21 VRB5      29.89F
COEUR D`ALENE  SUNNY     82  41  23 SW12      29.95F
MULLAN PASS    SUNNY     68  34  28 MISG      30.13F
$$




USA.gov is the U.S. government's official web portal to all federal, state and local government web resources and services.